Location: ??????
(42.0089°N, 44.3281°E)
Time: 16:59:40
(UTC+00:00)

USA 267 - Pass Details

Date: 07 June 2022
Orbit: 1101 x 1106 km, 123.0° (Epoch: 28 June)

Event Time Altitude Azimuth Distance (km) Brightness Sun altitude
Rises 20:41:26 0° 82° (E) 3,917 6.2 -25.0°
Reaches altitude 10° 20:44:15 10° 72° (ENE) 2,960 5.7 -25.1°
Maximum altitude 20:49:39 29° 16° (NNE) 1,911 5.1 -25.1°
Drops below altitude 10° 20:55:03 10° 320° (NW) 2,965 6.2 -25.2°
Sets 20:57:52 0° 310° (NW) 3,925 6.7 -25.2°
